FW8813 Weather Reports


time (UTC)temp
F
wind
direction
speed
knots
gust
knots
rain 1hr
in
rain 24hr
in
rain mn
in
humidity
%
barometer
mb
20260510190533 80 267 3.5 7.0 0.00 0.00 0.00 41 1015.2
20260510190047 81 271 1.7 9.6 0.00 0.00 0.00 38 1015.1
20260510185534 81 278 3.5 9.6 0.00 0.00 0.00 41 1015.2
20260510185034 82 289 3.5 6.1 0.00 0.00 0.00 38 1015.2
20260510184545 81 144 0.9 5.2 0.00 0.00 0.00 41 1015.2
20260510184035 81 231 1.7 4.3 0.00 0.00 0.00 38 1015.2
20260510183535 81 281 1.7 4.3 0.00 0.00 0.00 37 1015.4
20260510183050 81 264 1.7 6.1 0.00 0.00 0.00 39 1015.3
20260510182537 81 295 1.7 6.1 0.00 0.00 0.00 34 1015.3
20260510182033 81 302 2.6 6.1 0.00 0.00 0.00 38 1015.3
20260510181545 81 300 2.6 5.2 0.00 0.00 0.00 37 1015.2
20260510181033 81 237 2.6 5.2 0.00 0.00 0.00 38 1015.4
20260510180534 81 237 2.6 4.3 0.00 0.00 0.00 38 1015.4
20260510180051 81 126 1.7 3.5 0.00 0.00 0.00 39 1015.4
20260510175534 80 255 0.9 7.0 0.00 0.00 0.00 42 1015.6
20260510175034 80 241 1.7 7.0 0.00 0.00 0.00 37 1015.5
20260510174547 79 290 3.5 7.8 0.00 0.00 0.00 37 1015.7
20260510174036 80 313 4.3 7.8 0.00 0.00 0.00 35 1015.6
20260510173533 81 276 1.7 7.8 0.00 0.00 0.00 37 1015.7
20260510173044 80 146 1.7 7.8 0.00 0.00 0.00 38 1015.8
20260510172534 80 179 1.7 5.2 0.00 0.00 0.00 37 1015.9
20260510172033 80 283 1.7 4.3 0.00 0.00 0.00 34 1015.8
20260510171559 80 248 1.7 8.7 0.00 0.00 0.00 35 1015.9
20260510171033 79 257 1.7 8.7 0.00 0.00 0.00 37 1015.8
20260510170534 79 291 1.7 6.1 0.00 0.00 0.00 33 1015.9
20260510170047 79 267 0.9 5.2 0.00 0.00 0.00 36 1016.1
20260510165533 79 210 0.9 5.2 0.00 0.00 0.00 37 1016.2
20260510165033 79 264 2.6 5.2 0.00 0.00 0.00 35 1016.0
20260510164548 79 43 1.7 7.8 0.00 0.00 0.00 36 1016.2
20260510164033 78 291 4.3 7.8 0.00 0.00 0.00 31 1016.2
20260510163538 78 304 2.6 5.2 0.00 0.00 0.00 37 1016.2
20260510163054 78 51 0.9 5.2 0.00 0.00 0.00 35 1016.2
20260510162535 78 0 1.7 7.0 0.00 0.00 0.00 35 1016.2
20260510162033 78 280 4.3 7.8 0.00 0.00 0.00 37 1016.2
20260510161541 78 291 3.5 7.8 0.00 0.00 0.00 37 1016.3
20260510161034 78 0 1.7 5.2 0.00 0.00 0.00 35 1016.3
20260510160534 78 162 0.9 3.5 0.00 0.00 0.00 38 1016.3
20260510160051 78 263 0.9 5.2 0.00 0.00 0.00 35 1016.2
20260510155533 77 288 0.9 6.1 0.00 0.00 0.00 36 1016.2
20260510155033 77 303 3.5 7.0 0.00 0.00 0.00 33 1016.3
20260510154547 78 283 3.5 7.0 0.00 0.00 0.00 35 1016.4
20260510154033 77 349 0.9 6.1 0.00 0.00 0.00 42 1016.4
20260510153533 77 287 2.6 6.1 0.00 0.00 0.00 38 1016.5
20260510153046 77 290 1.7 6.1 0.00 0.00 0.00 37 1016.6
20260510152533 77 328 2.6 6.1 0.00 0.00 0.00 37 1016.7
20260510152033 76 293 1.7 6.1 0.00 0.00 0.00 38 1016.7
20260510151549 76 278 2.6 6.1 0.00 0.00 0.00 38 1016.7
20260510151033 76 297 1.7 7.0 0.00 0.00 0.00 39 1016.7
20260510150534 76 279 3.5 7.0 0.00 0.00 0.00 38 1016.7
20260510150052 76 255 1.7 3.5 0.00 0.00 0.00 38 1016.6
20260510145535 76 332 0.9 5.2 0.00 0.00 0.00 39 1016.6
20260510145035 76 330 0.9 5.2 0.00 0.00 0.00 44 1016.6
20260510144604 75 303 2.6 5.2 0.00 0.00 0.00 44 1016.6
20260510144033 75 297 0.9 5.2 0.00 0.00 0.00 44 1016.6
20260510143534 75 304 2.6 5.2 0.00 0.00 0.00 43 1016.6
20260510143108 75 285 1.7 6.1 0.00 0.00 0.00 48 1016.7
20260510142534 75 4 2.6 6.1 0.00 0.00 0.00 46 1016.7
20260510142034 74 300 2.6 6.1 0.00 0.00 0.00 45 1016.7
20260510141547 74 299 3.5 6.1 0.00 0.00 0.00 49 1016.6
20260510141035 74 283 1.7 3.5 0.00 0.00 0.00 48 1016.8
20260510140534 74 0 0.0 0.0 0.00 0.00 0.00 54 1016.6
20260510140048 74 0 0.0 0.0 0.00 0.00 0.00 59 1016.8
20260510135533 73 0 0.0 0.0 0.00 0.00 0.00 63 1016.8
20260510135035 73 0 0.0 0.0 0.00 0.00 0.00 62 1016.7
20260510134602 73 0 0.0 0.0 0.00 0.00 0.00 63 1016.7
20260510134036 72 0 0.0 0.0 0.00 0.00 0.00 63 1016.8
20260510133534 72 0 0.0 0.0 0.00 0.00 0.00 67 1016.8
20260510133045 71 0 0.0 0.0 0.00 0.00 0.00 63 1016.7
20260510132534 70 0 0.0 0.0 0.00 0.00 0.00 69 1016.6
20260510132035 70 0 0.0 0.0 0.00 0.00 0.00 69 1016.7
20260510131541 69 0 0.0 0.0 0.00 0.00 0.00 70 1016.6
20260510131036 69 0 0.0 0.0 0.00 0.00 0.00 71 1016.6
20260510130534 69 0 0.0 0.0 0.00 0.00 0.00 72 1016.4
20260510130048 68 0 0.0 0.0 0.00 0.00 0.00 75 1016.3
20260510125533 67 0 0.0 0.0 0.00 0.00 0.00 75 1016.4
20260510125034 66 0 0.0 0.0 0.00 0.00 0.00 75 1016.2
20260510124553 66 0 0.0 0.0 0.00 0.00 0.00 76 1016.2
20260510124033 65 0 0.0 0.0 0.00 0.00 0.00 77 1016.4
20260510123534 64 0 0.0 0.0 0.00 0.00 0.00 75 1016.4
20260510123045 64 0 0.0 0.0 0.00 0.00 0.00 76 1016.2
20260510122535 63 0 0.0 0.0 0.00 0.00 0.00 75 1016.2
20260510122033 62 0 0.0 0.0 0.00 0.00 0.00 79 1016.1
20260510121551 62 0 0.0 0.0 0.00 0.00 0.00 80 1016.0
20260510121034 61 0 0.0 0.0 0.00 0.00 0.00 83 1016.0
20260510120534 61 0 0.0 0.0 0.00 0.00 0.00 85 1015.8
20260510120046 59 0 0.0 0.0 0.00 0.00 0.00 91 1015.9
20260510115534 58 0 0.0 0.0 0.00 0.00 0.00 89 1015.8
20260510115034 57 0 0.0 0.0 0.00 0.00 0.00 89 1015.7
20260510114547 56 0 0.0 0.0 0.00 0.00 0.00 91 1015.6
20260510114034 55 0 0.0 0.0 0.00 0.00 0.00 93 1015.6
20260510113533 54 0 0.0 0.0 0.00 0.00 0.00 93 1015.4
20260510113041 53 0 0.0 0.0 0.00 0.00 0.00 94 1015.4
20260510112534 52 0 0.0 0.0 0.00 0.00 0.00 94 1015.3
20260510112038 51 0 0.0 0.0 0.00 0.00 0.00 96 1015.1
20260510111555 50 0 0.0 0.0 0.00 0.00 0.00 95 1014.9
20260510111033 50 0 0.0 0.0 0.00 0.00 0.00 95 1014.9
20260510110533 50 0 0.0 0.0 0.00 0.00 0.00 96 1014.9
20260510110045 49 0 0.0 0.0 0.00 0.00 0.00 96 1014.9
20260510105533 48 0 0.0 0.0 0.00 0.00 0.00 96 1014.9
20260510105035 48 0 0.0 0.0 0.00 0.00 0.00 97 1014.7
20260510104559 47 0 0.0 0.0 0.00 0.00 0.00 98 1014.9
20260510104037 46 0 0.0 0.0 0.00 0.00 0.00 97 1014.7
20260510103534 46 0 0.0 0.0 0.00 0.00 0.00 97 1014.6
20260510103049 46 0 0.0 0.0 0.00 0.00 0.00 97 1014.6
20260510102534 45 0 0.0 0.0 0.00 0.00 0.00 96 1014.5
20260510102034 46 0 0.0 0.0 0.00 0.00 0.00 97 1014.4
20260510101542 46 0 0.0 0.0 0.00 0.00 0.00 97 1014.3
20260510101033 46 0 0.0 0.0 0.00 0.00 0.00 97 1014.2
20260510100537 46 0 0.0 0.0 0.00 0.00 0.00 97 1014.2
20260510100046 45 0 0.0 0.0 0.00 0.00 0.00 96 1014.2
20260510095533 46 0 0.0 0.0 0.00 0.00 0.00 96 1014.1
20260510095033 46 0 0.0 0.0 0.00 0.00 0.00 96 1014.2
20260510094547 46 0 0.0 0.0 0.00 0.00 0.00 97 1013.9
20260510094033 46 0 0.0 0.0 0.00 0.00 0.00 96 1014.1
20260510093533 47 0 0.0 0.0 0.00 0.00 0.00 96 1014.0
20260510093045 48 0 0.0 0.0 0.00 0.00 0.00 97 1013.9
20260510092534 47 0 0.0 0.0 0.00 0.00 0.00 97 1013.9
20260510092037 47 0 0.0 0.0 0.00 0.00 0.00 96 1013.8
20260510091546 48 0 0.0 0.0 0.00 0.00 0.00 97 1013.8
20260510091034 47 0 0.0 0.0 0.00 0.00 0.00 97 1013.7
20260510090534 47 0 0.0 0.0 0.00 0.00 0.00 95 1013.8
20260510090042 48 0 0.0 0.0 0.00 0.00 0.00 96 1013.6
20260510085533 48 0 0.0 0.0 0.00 0.00 0.00 96 1013.5
20260510085034 48 0 0.0 0.0 0.00 0.00 0.00 96 1013.5
20260510084543 48 0 0.0 0.0 0.00 0.00 0.00 95 1013.3
20260510084034 49 0 0.0 0.0 0.00 0.00 0.00 96 1013.5
20260510083534 50 0 0.0 0.0 0.00 0.00 0.00 97 1013.4
20260510083048 49 0 0.0 0.0 0.00 0.00 0.00 97 1013.3
20260510082532 48 0 0.0 0.0 0.00 0.00 0.00 97 1013.2
20260510082033 48 0 0.0 0.0 0.00 0.00 0.00 95 1013.2
20260510081558 48 0 0.0 0.0 0.00 0.00 0.00 95 1013.1
20260510081035 48 0 0.0 0.0 0.00 0.00 0.00 95 1013.1
20260510080534 49 0 0.0 0.0 0.00 0.00 0.00 95 1013.1
20260510080046 50 0 0.0 0.0 0.00 0.00 0.00 96 1013.1
20260510075533 49 0 0.0 0.0 0.00 0.00 0.00 95 1013.0
20260510075033 50 0 0.0 0.0 0.00 0.00 0.00 95 1012.9
20260510074552 50 0 0.0 0.0 0.00 0.00 0.00 95 1012.9
20260510074033 51 0 0.0 0.0 0.00 0.00 0.00 95 1012.9
20260510073534 52 0 0.0 0.0 0.00 0.00 0.00 95 1012.9
20260510073044 52 0 0.0 0.0 0.00 0.00 0.00 97 1012.7
20260510072533 52 0 0.0 0.0 0.00 0.00 0.00 96 1012.8
20260510072035 52 0 0.0 0.0 0.00 0.00 0.00 96 1012.9
20260510071548 51 0 0.0 0.0 0.00 0.00 0.00 95 1012.8
20260510071034 52 0 0.0 0.0 0.00 0.00 0.00 95 1013.0
20260510070533 52 0 0.0 0.0 0.00 0.00 0.00 94 1012.9
20260510070044 53 0 0.0 0.0 0.00 0.00 0.00 96 1012.9
20260510065534 53 0 0.0 0.0 0.00 0.00 0.00 96 1013.0
20260510065033 54 0 0.0 0.0 0.00 0.00 0.00 96 1012.9
20260510064544 53 0 0.0 0.0 0.00 0.00 0.00 96 1013.0
20260510064033 53 0 0.0 0.0 0.00 0.00 0.00 96 1013.1
20260510063533 54 0 0.0 0.0 0.00 0.00 0.00 96 1013.1
20260510063045 54 0 0.0 0.0 0.00 0.00 0.00 97 1013.0
20260510062534 53 0 0.0 0.0 0.00 0.00 0.00 95 1013.2
20260510062033 54 0 0.0 0.0 0.00 0.00 0.00 96 1013.1
20260510061543 54 0 0.0 0.0 0.00 0.00 0.00 96 1013.2
20260510061035 54 0 0.0 0.0 0.00 0.00 0.00 96 1013.1
20260510060533 54 0 0.0 0.0 0.00 0.00 0.00 95 1013.1
20260510060052 54 0 0.0 0.0 0.00 0.00 0.00 97 1013.2
20260510055533 54 0 0.0 0.0 0.00 0.00 0.00 97 1013.2
20260510055035 54 0 0.0 0.0 0.00 0.00 0.00 96 1013.3
20260510054549 54 0 0.0 0.0 0.00 0.00 0.00 96 1013.3
20260510054033 54 0 0.0 0.0 0.00 0.00 0.00 95 1013.2
20260510053533 54 0 0.0 0.0 0.00 0.00 0.00 95 1013.2
20260510053042 55 0 0.0 0.0 0.00 0.00 0.00 96 1013.4
20260510052533 55 0 0.0 0.0 0.00 0.00 0.00 96 1013.4
20260510052033 55 0 0.0 0.0 0.00 0.00 0.00 95 1013.3
20260510051613 55 0 0.0 0.0 0.00 0.00 0.00 95 1013.5
20260510051035 55 0 0.0 0.0 0.00 0.00 0.00 94 1013.5
20260510050533 55 0 0.0 0.0 0.00 0.00 0.00 95 1013.6
20260510050048 56 0 0.0 0.0 0.00 0.00 0.00 97 1013.5
20260510045534 55 0 0.0 0.0 0.00 0.00 0.00 95 1013.4
20260510045034 55 0 0.0 0.0 0.00 0.00 0.00 95 1013.4
20260510044544 55 0 0.0 0.0 0.00 0.00 0.00 94 1013.4
20260510044035 55 0 0.0 0.0 0.00 0.00 0.00 95 1013.4
20260510043534 55 0 0.0 0.0 0.00 0.00 0.00 95 1013.5
20260510043102 55 0 0.0 0.0 0.00 0.00 0.00 94 1013.4
20260510042534 56 0 0.0 0.0 0.00 0.00 0.00 94 1013.5
20260510042033 56 0 0.0 0.0 0.00 0.00 0.00 95 1013.4
20260510041549 56 0 0.0 0.0 0.00 0.00 0.00 95 1013.5
20260510041034 56 0 0.0 0.0 0.00 0.00 0.00 94 1013.5
20260510040535 56 0 0.0 0.0 0.00 0.00 0.00 95 1013.5
20260510040043 56 0 0.0 0.0 0.00 0.00 0.00 94 1013.4
20260510035533 56 0 0.0 0.0 0.00 0.00 0.00 93 1013.5
20260510035037 56 0 0.0 0.0 0.00 0.00 0.00 92 1013.6
20260510034550 57 0 0.0 0.0 0.00 0.00 0.00 93 1013.4
20260510034033 57 0 0.0 0.0 0.00 0.00 0.00 94 1013.6
20260510033536 57 0 0.0 0.0 0.00 0.00 0.00 93 1013.4
20260510033049 57 0 0.0 0.0 0.00 0.00 0.00 92 1013.4
20260510032533 57 0 0.0 0.0 0.00 0.00 0.00 92 1013.5
20260510032034 57 0 0.0 0.0 0.00 0.00 0.00 92 1013.4
20260510031615 58 0 0.0 0.0 0.00 0.00 0.00 92 1013.2
20260510031034 58 0 0.0 0.0 0.00 0.00 0.00 92 1013.3
20260510030534 58 0 0.0 0.0 0.00 0.00 0.00 93 1013.3
20260510030044 58 0 0.0 0.0 0.00 0.00 0.00 92 1013.3
20260510025534 58 0 0.0 0.0 0.00 0.00 0.00 92 1013.1
20260510025034 58 0 0.0 0.0 0.00 0.00 0.00 92 1013.1
20260510024541 58 0 0.0 0.0 0.00 0.00 0.00 91 1013.1
20260510024033 58 0 0.0 0.0 0.00 0.00 0.00 91 1013.0
20260510023533 58 0 0.0 0.0 0.00 0.00 0.00 92 1012.9
20260510023053 58 0 0.0 0.0 0.00 0.00 0.00 91 1012.9
20260510022535 59 0 0.0 0.0 0.00 0.00 0.00 91 1013.0
20260510022035 59 0 0.0 0.0 0.00 0.00 0.00 90 1013.0
20260510021546 59 0 0.0 0.0 0.00 0.00 0.00 91 1012.8
20260510021034 59 0 0.0 0.0 0.00 0.00 0.00 90 1012.9
20260510020533 59 0 0.0 0.0 0.00 0.00 0.00 89 1012.8
20260510020048 60 0 0.0 0.0 0.00 0.00 0.00 89 1012.7
20260510015534 60 0 0.0 0.0 0.00 0.00 0.00 89 1012.5
20260510015034 60 0 0.0 0.0 0.00 0.00 0.00 89 1012.4
20260510014544 60 0 0.0 0.0 0.00 0.00 0.00 88 1012.4
20260510014037 60 0 0.0 0.0 0.00 0.00 0.00 87 1012.2
20260510013535 61 0 0.0 0.0 0.00 0.00 0.00 86 1012.2
20260510013050 61 0 0.0 0.0 0.00 0.00 0.00 86 1012.0
20260510012534 61 0 0.0 0.0 0.00 0.00 0.00 86 1011.9
20260510012034 62 0 0.0 0.0 0.00 0.00 0.00 85 1011.9
20260510011602 62 0 0.0 0.0 0.00 0.00 0.00 84 1011.8
20260510011034 62 0 0.0 0.0 0.00 0.00 0.00 84 1011.7
20260510010535 63 0 0.0 0.0 0.00 0.00 0.00 83 1011.6
20260510005535 64 0 0.0 0.0 0.00 0.00 0.00 82 1011.4
20260510005033 64 0 0.0 0.0 0.00 0.00 0.00 81 1011.3
20260510004546 64 0 0.0 0.0 0.00 0.00 0.00 80 1011.2
20260510004036 65 0 0.0 0.0 0.00 0.00 0.00 79 1011.1
20260510003535 65 0 0.0 0.0 0.00 0.00 0.00 77 1011.0
20260510003046 66 0 0.0 0.0 0.00 0.00 0.00 76 1010.9
20260510002533 66 0 0.0 0.0 0.00 0.00 0.00 75 1011.1
20260510002034 67 0 0.0 0.0 0.00 0.00 0.00 75 1011.0
20260510001544 67 0 0.0 0.0 0.00 0.00 0.00 73 1011.0
20260510001034 68 0 0.0 0.0 0.00 0.00 0.00 71 1010.9
20260510000534 69 0 0.0 0.0 0.00 0.00 0.00 70 1010.9
20260510000049 69 0 0.0 0.0 0.00 0.00 0.00 69 1010.8
20260509235533 70 0 0.0 0.0 0.00 0.00 0.00 67 1010.8
20260509235035 70 0 0.0 0.0 0.00 0.00 0.00 67 1010.8
20260509234542 70 0 0.0 0.0 0.00 0.00 0.00 67 1010.9
20260509234033 71 0 0.0 0.0 0.00 0.00 0.00 66 1010.9
20260509233535 71 0 0.0 0.0 0.00 0.00 0.00 65 1010.8
20260509233041 72 0 0.0 0.0 0.00 0.00 0.00 63 1010.6
20260509232537 73 0 0.0 0.0 0.00 0.00 0.00 63 1010.6
20260509232034 73 0 0.0 0.0 0.00 0.00 0.00 61 1010.5
20260509231554 74 0 0.0 0.0 0.00 0.00 0.00 59 1010.4
20260509231033 75 0 0.0 0.0 0.00 0.00 0.00 59 1010.3
20260509230533 75 0 0.0 0.0 0.00 0.00 0.00 58 1010.1
20260509230045 75 0 0.0 2.6 0.00 0.00 0.00 57 1010.1
20260509225534 75 0 0.0 2.6 0.00 0.00 0.00 57 1009.9
20260509225034 76 148 0.0 2.6 0.00 0.00 0.00 56 1009.8
20260509224544 76 0 0.0 0.9 0.00 0.00 0.00 56 1010.1
20260509224035 76 0 0.0 0.9 0.00 0.00 0.00 56 1010.0
20260509223534 75 165 0.9 0.9 0.00 0.00 0.00 56 1009.9
20260509223044 75 0 0.0 0.9 0.00 0.00 0.00 57 1009.9
20260509222533 75 0 0.0 2.6 0.00 0.00 0.00 57 1010.0
20260509222036 75 233 0.9 2.6 0.00 0.00 0.00 57 1010.0
20260509221543 76 276 0.0 1.7 0.00 0.00 0.00 55 1010.0
20260509221035 76 93 0.0 1.7 0.00 0.00 0.00 57 1010.0
20260509220533 75 0 0.0 0.0 0.00 0.00 0.00 58 1010.1
20260509220044 74 0 0.0 0.0 0.00 0.00 0.00 60 1010.1
20260509215534 73 0 0.0 0.0 0.00 0.00 0.00 63 1010.0
20260509215038 72 0 0.0 0.0 0.00 0.00 0.00 64 1009.9
20260509214541 72 0 0.0 0.0 0.00 0.00 0.00 61 1009.9
20260509214034 72 0 0.0 0.0 0.00 0.00 0.00 62 1010.0
20260509213534 72 0 0.0 0.0 0.00 0.00 0.00 61 1009.9
20260509213100 72 0 0.0 0.0 0.00 0.00 0.00 61 1009.9
20260509212534 72 0 0.0 0.0 0.00 0.00 0.00 58 1009.8
20260509212034 72 0 0.0 0.0 0.00 0.00 0.00 59 1009.9
20260509211609 72 0 0.0 0.0 0.00 0.00 0.00 59 1009.9
20260509211034 72 0 0.0 1.7 0.00 0.00 0.00 60 1009.6
20260509210534 72 0 0.0 1.7 0.00 0.00 0.00 58 1009.8
20260509210048 73 276 0.0 1.7 0.00 0.00 0.00 58 1009.6
20260509205533 72 262 0.0 3.5 0.00 0.00 0.00 59 1009.7
20260509205034 73 263 0.9 3.5 0.00 0.00 0.00 57 1009.6
20260509204557 73 0 0.0 1.7 0.00 0.00 0.00 57 1009.8
20260509204035 73 0 0.0 1.7 0.00 0.00 0.00 57 1009.7
20260509203533 73 0 0.0 0.9 0.00 0.00 0.00 59 1009.6
20260509203049 72 0 0.0 2.6 0.00 0.00 0.00 58 1009.5
20260509202537 72 0 0.0 2.6 0.00 0.00 0.00 59 1009.7
20260509202034 72 298 0.9 2.6 0.00 0.00 0.00 57 1009.7
20260509201547 72 275 0.0 3.5 0.00 0.00 0.00 57 1009.6
20260509201033 72 300 1.7 3.5 0.00 0.00 0.00 56 1009.7
20260509200535 72 297 1.7 3.5 0.00 0.00 0.00 56 1009.7
20260509200048 73 0 0.0 2.6 0.00 0.00 0.00 57 1009.8
20260509195533 73 0 0.9 2.6 0.00 0.00 0.00 60 1009.9
20260509195037 73 0 0.0 2.6 0.00 0.00 0.00 57 1010.0
20260509194546 73 234 0.0 7.0 0.00 0.00 0.00 58 1010.0
20260509194035 73 126 0.0 7.0 0.00 0.00 0.00 56 1010.0
20260509193539 73 111 1.7 5.2 0.00 0.00 0.00 57 1010.0
20260509193045 74 270 1.7 9.6 0.00 0.00 0.00 56 1010.0
20260509192535 74 252 1.7 9.6 0.00 0.00 0.00 55 1009.9
20260509192034 74 136 2.6 7.0 0.00 0.00 0.00 57 1009.8
20260509191542 74 261 2.6 5.2 0.00 0.00 0.00 57 1009.9
20260509191035 73 122 0.9 4.3 0.00 0.00 0.00 56 1009.9